User: anonymous
Location: NC_16_and_73
(35.4490°N, 81.0150°W)
Time: 09:22:56
(UTC-04:00)
Language:

Cosmos-2242 - Orbit

View from above orbital plane
View from above orbital plane
View from above satellite
View from above satellite

Ground track
Ground track

The orbit data is extracted from the following two-line orbital elements,

1 22626U 93024A   14234.28178664  .00000539  00000-0  58795-4 0  1753
2 22626 082.5220 291.9242 0018077 297.2164 062.7210 14.85983976153087
Epoch (UTC): 22 August 2014 06:45:46
Eccentricity: 0.0018077
inclination: 82.5220°
perigee height: 598 km
apogee height: 623 km
right ascension of ascending node: 291.9242°
argument of perigee: 297.2164°
revolutions per day: 14.85983976
mean anomaly at epoch: 62.7210°
orbit number at epoch: 15308

The dashed part of the orbit path shows where the satellite is in the earth's shadow,  

DLR